THORAD AGENA D DEB, 4655

Orbit data source: Space-Track

THORAD AGENA D DEB, 4655 is space debris in SSO originally from a launch on Wed, 08 Apr 1970 UTC launched from the Air Force Western Test Range (AFWTR). Debris objects in space refer to the collection of defunct objects orbiting the Earth. Examples of debris include non-operational satellites, rocket bodies, and fragments generated from explosions, collisions, or faulty payload assembly.

Loading next visibility...
Identifier
4655, 1970-025AP
Orbit
SSO
Last TLE update
2 days ago
Origin
Manufacturer
Unknown
Mission
Spacecraft
Bus & Motor
Unknown
Mass
Unknown
Launch date (UTC)
1970-04-08 (55 years ago)
Launch vehicle
Unknown
Launch site
Air Force Western Test Range (AFWTR)
Object type
Payload
Rocket body
Debris
Shape & HBR
Unknown
Radar Cross Section
Small (<0.1 m²)

Expand to show TLE details & history

TLE from 2 days ago
0 THORAD AGENA D DEB
1 04655U 70025AP  25188.17245058  .00000138  00000-0  21274-3 0  9991
2 04655  99.9653 281.5673 0052936 304.4779  55.1371 13.69139751750609
Epoch: 2025-07-07T04:08Z
TLE epoch observation values (Epoch: 2025-07-07T04:08:19.73Z)
Latitude
-0.00001°
Longitude
-65.90051°
Altitude
983.266 km
Speed
7.371 km/s
True Right ascension
18h 46m 16s
True Declination
0° 00' 00"
Sunlit
Object was in full shadow at epoch
Visualization orbit readout
Latitude
65.10758°
Longitude
-85.82667°
Altitude
1,037.692 km
Speed
7.327 km/s
Apparent Right ascension
09h 52m 23s
Apparent Declination
44° 03' 31"
Sunlit
Object is in daylight
Visualization observer readout
Local Sidereal Time
19:29:01
Azimuth
335.116° NNW
Elevation
-0.034°
Doppler factor
1
Orbital elements
Apogee altitude
1,039.007 km
Perigee altitude
960.894 km
Semi-major axis
7,378.088 km
Eccentricity
0.00529
Inclination
99.9653°
RAAN
281.5673°
Arg. of periapsis
304.4779°
True anomaly
Unknown
Mean anomaly
55.1371°
Eccentric anomaly
Unknown
Mean motion
3.42474 °/min
Orbital period
105.12 mins
BSTAR
0.00021274
Loading maneuver chart data...
Loading SW <> Apogee altitude chart data...

THORAD AGENA D DEB Visibility forecast

Observer location: undefined°, undefined°

Span
Click to sort rows by Start time (UTC) header in descending order
Start Az.
Max El. time (UTC)
Max El. Az.
Max El.
End time (UTC)
End Az.
9 mins2025-07-09 18:08:32.486Z43.958° NE2025-07-09 18:12:32.486Z88.614° E24.931°2025-07-09 18:17:32.486Z148.185° SSE
10 mins2025-07-09 19:52:32.486Z356.918° N2025-07-09 19:56:32.486Z299.978° NW36.463°2025-07-09 20:02:32.486Z221.465° SW
10 mins2025-07-10 05:55:32.486Z153.266° SSE2025-07-10 05:59:32.486Z107.219° ESE43.314°2025-07-10 06:05:32.486Z349.391° N
|